sat.trackr.live / text

‹ back to catalog

STARLINK-30514

NORAD 58028 · 2023-156A

PAYLOAD ACTIVE UNKNOWN

§ Identity

Operator
Country
US
Launch date
2023-10-09
Launch site
AFWTR
Launch vehicle
Mass (kg)
RCS (m²)

Purposes: comms

External: N2YO · Heavens-Above · Gunter

§ Orbital elements

Epoch: 2026-05-25T04:54:21.022272Z

Period
94.11 min
Inclination
53.1608°
Eccentricity
0.0001655
Mean motion
15.30192866 rev/d
Perigee alt
474.1 km
Apogee alt
476.4 km
Semi-major
6,853.4 km
B*
3.1494e-5
RAAN
82.7650°
Arg perigee
95.6611°
Mean anomaly
264.4578°
Rev number
14,803

§ Raw data

STARLINK-305141 58028U 23156A   26145.20440998  .00000573  00000+0  31494-4 0  99932 58028  53.1608  82.7650 0001655  95.6611 264.4578 15.30192866148034

JSON: /api/v1/satellites/58028 · /tle

For live sub-satellite position, see the globe view (requires WebGL).

§ Visibility from observer

Set your observer location to see the next 7 days of passes ≥ 10°. The values pass through the URL so the page stays shareable.

No JS? Fill the form by hand. The geolocation button needs JavaScript.